Hourly Weather Rukopol

Today, 20 April, Tuesday

Time Temperature Precipitation Wind Pressure Humidity
00:00 +2°C° 0.3 mm 8 mps 760 mmHg 80%
01:00 +2°C° 0.3 mm 8 mps 760 mmHg 78%
02:00 +2°C° 0.3 mm 8 mps 761 mmHg 77%
03:00 +1°C° 0.3 mm 8 mps 761 mmHg 76%
04:00 +1°C° 0 mm 8 mps 761 mmHg 73%
05:00 +1°C° 0 mm 8 mps 761 mmHg 71%
06:00 +1°C° 0 mm 8 mps 761 mmHg 68%
07:00 +1°C° 0 mm 9 mps 762 mmHg 66%
08:00 +1°C° 0 mm 9 mps 762 mmHg 64%
09:00 +1°C° 0 mm 9 mps 762 mmHg 62%
10:00 +2°C° 0 mm 9 mps 762 mmHg 61%
11:00 +4°C° 0 mm 8 mps 762 mmHg 60%
12:00 +4°C° 0 mm 8 mps 762 mmHg 60%
13:00 +6°C° 0 mm 8 mps 761 mmHg 57%
14:00 +7°C° 0 mm 9 mps 761 mmHg 54%
15:00 +10°C° 0 mm 9 mps 761 mmHg 51%
16:00 +8°C° 0 mm 9 mps 761 mmHg 52%
17:00 +8°C° 0 mm 9 mps 760 mmHg 52%
18:00 +7°C° 0 mm 9 mps 760 mmHg 53%
19:00 +7°C° 0 mm 9 mps 760 mmHg 53%
20:00 +6°C° 0 mm 9 mps 760 mmHg 53%
21:00 +5°C° 0 mm 10 mps 760 mmHg 53%
22:00 +5°C° 0 mm 9 mps 760 mmHg 53%
23:00 +5°C° 0 mm 9 mps 760 mmHg 53%

Tomorrow, 21 April, Wednesday

Time Temperature Precipitation Wind Pressure Humidity
00:00 +3°C° 0 mm 9 mps 760 mmHg 52%
01:00 +2°C° 0.5 mm 10 mps 760 mmHg 58%
02:00 +2°C° 0.5 mm 10 mps 760 mmHg 64%
03:00 +1°C° 0.5 mm 10 mps 759 mmHg 70%
04:00 +1°C° 0.9 mm 10 mps 760 mmHg 73%
05:00 0°C° 0.9 mm 10 mps 760 mmHg 77%
06:00 0°C° 0.9 mm 10 mps 760 mmHg 80%
07:00 0°C° 0.8 mm 10 mps 760 mmHg 81%
08:00 0°C° 0.8 mm 10 mps 760 mmHg 82%
09:00 0°C° 0.8 mm 10 mps 760 mmHg 83%
10:00 0°C° 0.2 mm 10 mps 760 mmHg 84%
11:00 0°C° 0.2 mm 10 mps 760 mmHg 85%
12:00 0°C° 0.2 mm 9 mps 760 mmHg 86%
13:00 0°C° 1.1 mm 9 mps 760 mmHg 88%
14:00 0°C° 1.1 mm 9 mps 760 mmHg 90%
15:00 0°C° 1.1 mm 8 mps 760 mmHg 92%
16:00 0°C° 1.3 mm 8 mps 761 mmHg 92%
17:00 +1°C° 1.3 mm 8 mps 761 mmHg 93%
18:00 +2°C° 1.3 mm 7 mps 761 mmHg 93%
19:00 +2°C° 0.7 mm 7 mps 761 mmHg 93%
20:00 +2°C° 0.7 mm 7 mps 761 mmHg 94%
21:00 +2°C° 0.7 mm 6 mps 761 mmHg 94%
22:00 +2°C° 0.4 mm 6 mps 761 mmHg 94%
23:00 +3°C° 0.4 mm 6 mps 761 mmHg 95%

Day after tomorrow, 22 April, Thursday

Time Temperature Precipitation Wind Pressure Humidity
00:00 +3°C° 0.4 mm 5 mps 761 mmHg 95%
01:00 +3°C° 0 mm 5 mps 761 mmHg 95%
02:00 +3°C° 0 mm 5 mps 761 mmHg 94%
03:00 +5°C° 0 mm 5 mps 761 mmHg 94%
04:00 +5°C° 0 mm 5 mps 762 mmHg 92%
05:00 +5°C° 0 mm 5 mps 762 mmHg 90%
06:00 +5°C° 0 mm 4 mps 762 mmHg 88%
07:00 +6°C° 0 mm 5 mps 762 mmHg 83%
08:00 +7°C° 0 mm 5 mps 762 mmHg 78%
09:00 +8°C° 0 mm 5 mps 763 mmHg 72%
10:00 +9°C° 0 mm 5 mps 763 mmHg 69%
11:00 +9°C° 0 mm 5 mps 763 mmHg 66%
12:00 +10°C° 0 mm 5 mps 763 mmHg 63%
13:00 +10°C° 0 mm 5 mps 763 mmHg 63%
14:00 +9°C° 0 mm 6 mps 763 mmHg 63%
15:00 +9°C° 0 mm 6 mps 763 mmHg 63%
16:00 +8°C° 0 mm 6 mps 763 mmHg 68%
17:00 +7°C° 0 mm 5 mps 763 mmHg 72%
18:00 +7°C° 0 mm 5 mps 763 mmHg 76%
19:00 +6°C° 0 mm 5 mps 763 mmHg 80%
20:00 +5°C° 0 mm 4 mps 763 mmHg 84%
21:00 +4°C° 0 mm 4 mps 763 mmHg 88%
22:00 +4°C° 0 mm 4 mps 763 mmHg 90%
23:00 +4°C° 0 mm 3 mps 763 mmHg 92%

23 April, Friday

Time Temperature Precipitation Wind Pressure Humidity
00:00 +3°C° 0 mm 3 mps 763 mmHg 94%
01:00 +4°C° 0 mm 2 mps 763 mmHg 95%
02:00 +4°C° 0 mm 2 mps 763 mmHg 95%
03:00 +4°C° 0 mm 2 mps 763 mmHg 96%
04:00 +4°C° 0 mm 2 mps 763 mmHg 95%
05:00 +4°C° 0 mm 2 mps 763 mmHg 93%
06:00 +5°C° 0 mm 2 mps 763 mmHg 92%
07:00 +6°C° 0 mm 2 mps 763 mmHg 86%
08:00 +8°C° 0 mm 2 mps 763 mmHg 79%
09:00 +9°C° 0 mm 3 mps 762 mmHg 73%
10:00 +11°C° 0 mm 3 mps 762 mmHg 69%
11:00 +12°C° 0 mm 3 mps 762 mmHg 66%
12:00 +13°C° 0 mm 3 mps 762 mmHg 62%
13:00 +13°C° 0 mm 4 mps 761 mmHg 61%
14:00 +14°C° 0 mm 4 mps 761 mmHg 59%
15:00 +14°C° 0 mm 4 mps 761 mmHg 57%
16:00 +13°C° 0 mm 3 mps 760 mmHg 59%
17:00 +13°C° 0 mm 3 mps 760 mmHg 62%
18:00 +12°C° 0 mm 3 mps 760 mmHg 64%
19:00 +11°C° 0 mm 3 mps 760 mmHg 71%
20:00 +10°C° 0 mm 3 mps 760 mmHg 77%
21:00 +9°C° 0 mm 3 mps 760 mmHg 84%
22:00 +8°C° 0 mm 2 mps 759 mmHg 87%
23:00 +8°C° 0 mm 2 mps 759 mmHg 91%

24 April, Saturday

Time Temperature Precipitation Wind Pressure Humidity
00:00 +8°C° 0 mm 1 mps 759 mmHg 94%
01:00 +8°C° 0 mm 1 mps 759 mmHg 94%
02:00 +8°C° 0 mm 1 mps 758 mmHg 94%
03:00 +7°C° 0 mm 1 mps 758 mmHg 94%
04:00 +8°C° 0 mm 1 mps 758 mmHg 94%
05:00 +8°C° 0 mm 1 mps 758 mmHg 93%
06:00 +8°C° 0 mm 1 mps 757 mmHg 92%
07:00 +9°C° 0 mm 1 mps 757 mmHg 85%
08:00 +11°C° 0 mm 1 mps 757 mmHg 78%
09:00 +12°C° 0 mm 1 mps 756 mmHg 72%
10:00 +13°C° 0 mm 2 mps 756 mmHg 67%
11:00 +14°C° 0 mm 2 mps 756 mmHg 61%
12:00 +15°C° 0 mm 2 mps 756 mmHg 56%
13:00 +15°C° 0.1 mm 2 mps 755 mmHg 55%
14:00 +16°C° 0.1 mm 2 mps 755 mmHg 53%
15:00 +17°C° 0.1 mm 2 mps 755 mmHg 51%
16:00 +16°C° 0.3 mm 2 mps 755 mmHg 55%
17:00 +16°C° 0.3 mm 2 mps 754 mmHg 59%
18:00 +15°C° 0.3 mm 2 mps 754 mmHg 62%
19:00 +13°C° 0.3 mm 3 mps 754 mmHg 68%
20:00 +12°C° 0.3 mm 3 mps 754 mmHg 73%
21:00 +11°C° 0.3 mm 4 mps 754 mmHg 79%
22:00 +11°C° 0.2 mm 4 mps 754 mmHg 80%
23:00 +10°C° 0.2 mm 4 mps 753 mmHg 82%

25 April, Sunday

Time Temperature Precipitation Wind Pressure Humidity
00:00 +9°C° 0.2 mm 5 mps 753 mmHg 83%
01:00 +10°C° 0 mm 4 mps 753 mmHg 83%
02:00 +10°C° 0 mm 4 mps 753 mmHg 83%
03:00 +8°C° 0 mm 4 mps 752 mmHg 83%
04:00 +8°C° 0 mm 5 mps 753 mmHg 82%
05:00 +8°C° 0 mm 6 mps 753 mmHg 81%
06:00 +8°C° 0 mm 6 mps 753 mmHg 79%
07:00 +8°C° 0 mm 7 mps 753 mmHg 70%
08:00 +7°C° 0 mm 8 mps 753 mmHg 60%
09:00 +8°C° 0 mm 9 mps 754 mmHg 50%
10:00 +8°C° 0 mm 9 mps 754 mmHg 49%
11:00 +8°C° 0 mm 9 mps 755 mmHg 48%
12:00 +8°C° 0 mm 10 mps 755 mmHg 48%
13:00 +10°C° 0 mm 9 mps 755 mmHg 43%
14:00 +10°C° 0 mm 9 mps 755 mmHg 38%
15:00 +11°C° 0 mm 9 mps 755 mmHg 33%
16:00 +10°C° 0 mm 8 mps 755 mmHg 36%
17:00 +10°C° 0 mm 6 mps 756 mmHg 39%
18:00 +9°C° 0 mm 5 mps 756 mmHg 42%
19:00 +8°C° 0 mm 4 mps 757 mmHg 46%
20:00 +7°C° 0 mm 4 mps 757 mmHg 50%
21:00 +7°C° 0 mm 3 mps 757 mmHg 54%
22:00 +7°C° 0 mm 3 mps 757 mmHg 56%
23:00 +5°C° 0 mm 3 mps 757 mmHg 57%
Show more